Flag for Finland Weather past 2 weeks in Jyväskylä, Finland

Now
21 °F

Low clouds.


Feels Like: 21 °F
Forecast: 15 / 20 °F
Wind: No wind

Location: Jyvaskyla Airport

Current Time: Dec 22, 2014 at 11:57:41 AM

Latest Report: Dec 22, 2014 at 11:20 AM


Visibility: N/A

Pressure: 29.30 "Hg

Humidity: 93%

Dew point: 19 °F

Location of JyväskyläLocation

Historic Weather in Jyväskylä — Graph

°F

Jyväskylä temperature yesterday

Maximum temperature yesterday: 28 °F (at 3:20 AM)
Minimum temperature yesterday: 25 °F (at 8:50 AM)
Average temperature yesterday: 26 °F

Past Weeks' High & Low Weather Summary

 TemperatureHumidityPressure
High37 °F (Dec 7, 9:20 PM)100% (Dec 7, 4:20 PM)29.92 "Hg (Dec 7, 4:20 PM)
Low16 °F (Dec 22, 8:50 AM)75% (Dec 10, 4:50 PM)28.80 "Hg (Dec 20, 3:20 AM)
Average32 °F95%29.37 "Hg
* Reported Dec 7 10:20 AM — Dec 22 10:50 AM, Jyväskylä, Weather by CustomWeather, © 2014

Note: Actual official high and low records may vary slightly from our data, if they occured in-between our weather recording intervals... More about our weather records

Advertising

Jyväskylä weather history for previous 24 hours

 ConditionsComfort  
Time TempWeatherWind HumidityBarometerVisibility
10:50 AM
Dec 22
19 °FLow clouds.3 mph100%29.30 "HgN/A
10:20 AM16 °FPartly sunny.1 mph100%29.30 "HgN/A
9:50 AM16 °FPartly sunny.2 mph93%29.30 "HgN/A
9:20 AM18 °FIce fog.No wind100%29.30 "HgN/A
8:50 AM16 °FPassing clouds.2 mph100%29.30 "HgN/A
8:20 AM19 °FIce fog.No wind100%29.30 "Hg1 mi
7:20 AM21 °FLight snow. Overcast.3 mph100%29.30 "HgN/A
6:50 AM25 °FLight snow. Overcast.3 mph93%29.30 "Hg4 mi
6:20 AM23 °FSnow flurries. Overcast.3 mph100%29.30 "Hg3 mi
5:50 AM23 °FSnow flurries. Mostly cloudy.2 mph100%29.33 "HgN/A
5:20 AM23 °FSnow flurries. Overcast.2 mph100%29.33 "Hg4 mi
4:50 AM23 °FSnow flurries. Overcast.3 mph100%29.33 "HgN/A
4:20 AM23 °FLight snow. Overcast.2 mph100%29.33 "Hg3 mi
3:50 AM23 °FLight snow. Overcast.2 mph100%29.33 "Hg3 mi
3:20 AM25 °FLight snow. Mostly cloudy.3 mph93%29.33 "HgN/A
2:50 AM25 °FLight snow. Mostly cloudy.5 mph93%29.33 "HgN/A
2:20 AM25 °FLight snow. Overcast.5 mph93%29.33 "HgN/A
1:50 AM25 °FLight snow. Overcast.6 mph93%29.33 "Hg5 mi
1:20 AM25 °FLight snow. Overcast.8 mph93%29.33 "HgN/A
12:50 AM25 °FSnow flurries. Overcast.7 mph93%29.33 "HgN/A
12:20 AM23 °FSnow flurries. Overcast.6 mph93%29.33 "HgN/A
11:20 PM
Dec 21
25 °FSnow flurries. Passing clouds.12 mph86%29.33 "HgN/A
10:50 PM25 °FSnow flurries. Overcast.10 mph93%29.33 "HgN/A
10:20 PM25 °FLight snow. Passing clouds.12 mph93%29.33 "HgN/A
9:50 PM27 °FLight snow. Mostly cloudy.14 mph86%29.30 "HgN/A
9:20 PM27 °FLight snow. Mostly cloudy.13 mph86%29.30 "HgN/A
8:50 PM27 °FLight snow. Overcast.8 mph93%29.30 "Hg4 mi
8:20 PM27 °FLight snow. Overcast.9 mph93%29.30 "HgN/A
7:50 PM27 °FLight snow. Overcast.9 mph93%29.30 "Hg6 mi
7:20 PM27 °FLight snow. Mostly cloudy.13 mph93%29.27 "Hg5 mi
6:50 PM27 °FLight snow. Passing clouds.15 mph93%29.27 "HgN/A
6:20 PM27 °FLight snow. Passing clouds.14 mph93%29.27 "Hg4 mi
5:50 PM27 °FLight snow. Overcast.10 mph93%29.24 "Hg5 mi
5:20 PM27 °FLight snow. Overcast.9 mph93%29.24 "Hg3 mi
4:50 PM27 °FLight snow. Overcast.10 mph93%29.24 "Hg5 mi
4:20 PM27 °FLight snow. Overcast.10 mph93%29.24 "HgN/A
3:50 PM27 °FLight snow. Mostly cloudy.10 mph93%29.21 "HgN/A
3:20 PM27 °FLight snow. Overcast.12 mph93%29.21 "HgN/A
2:50 PM27 °FLight snow. Overcast.10 mph93%29.21 "Hg4 mi
2:20 PM27 °FLight snow. Overcast.10 mph93%29.21 "Hg1 mi
1:50 PM27 °FSnow flurries. Overcast.12 mph93%29.21 "Hg4 mi
1:20 PM27 °FLight snow. Overcast.13 mph86%29.18 "HgN/A
12:50 PM25 °FSnow flurries. Mostly cloudy.12 mph93%29.18 "Hg5 mi
12:20 PM25 °FLight snow. Mostly cloudy.13 mph93%29.18 "Hg6 mi
11:50 AM25 °FLight snow. Overcast.12 mph93%29.18 "Hg2 mi
11:20 AM25 °FLight snow. Overcast.9 mph93%29.18 "Hg3 mi
Weather by CustomWeather, © 2014

See weather overviewHow to use our weather pages